Вернуться в каталог

CZ-4C DEB

АктивенSSO
NORAD 43411·DEBRIS·🇨🇳 China

Запущен Sep 23, 2013 с Taiyuan Satellite Launch Center

Loading…

Ближайшие Пролёты (ближайшие 24 часа)

TLE

СвежийSource: Space-Track

Эпоха: Sep 14, 2026, 22:27 UTC

1 43411U 13052F   26257.93559823  .00000044  00000-0  35519-4 0  9995
2 43411  98.5308 338.0855 0005887 126.2830 233.8895 14.27193994667196

Отслеживайте CZ-4C DEB в реальном времени с AllMySat

Download on the App Store